| time (UTC) | temp F | wind direction | speed MPH | gust MPH | rain 1hr in | rain 24hr in | rain mn in | humidity % | barometer mb |
| 20260505130127 | 51 | 22 | 0.0 | 3.0 | 0.00 | 0.00 | 0.00 | 57 | 873.8 |
| 20260505120138 | 50 | 73 | 2.0 | 5.0 | 0.00 | 0.00 | 0.00 | 57 | 873.7 |
| 20260505110117 | 51 | 71 | 2.0 | 5.0 | 0.00 | 0.00 | 0.00 | 55 | 873.6 |
| 20260505100139 | 52 | 84 | 2.0 | 5.0 | 0.00 | 0.00 | 0.00 | 54 | 873.5 |
| 20260505090113 | 52 | 74 | 3.0 | 5.0 | 0.00 | 0.00 | 0.00 | 53 | 873.6 |
| 20260505080153 | 52 | 105 | 4.0 | 8.0 | 0.00 | 0.00 | 0.00 | 52 | 873.4 |
| 20260505070123 | 53 | 90 | 2.0 | 5.0 | 0.00 | 0.00 | 0.00 | 51 | 873.4 |
| 20260505060137 | 53 | 333 | 2.0 | 6.0 | 0.00 | 0.00 | 0.00 | 51 | 873.1 |
| 20260505052731 | 53 | 14 | 2.0 | 9.0 | 0.00 | 0.00 | 0.00 | 54 | 873.4 |
| 20260505040156 | 53 | 5 | 3.0 | 8.0 | 0.00 | 0.00 | 0.00 | 58 | 873.2 |
| 20260505030140 | 54 | 352 | 3.0 | 6.0 | 0.00 | 0.00 | 0.00 | 57 | 872.9 |
| 20260505020145 | 57 | 84 | 3.0 | 8.0 | 0.00 | 0.00 | 0.00 | 52 | 872.9 |
| 20260505010138 | 59 | 311 | 6.0 | 14.0 | 0.00 | 0.00 | 0.00 | 46 | 873.2 |
| 20260505000111 | 59 | 334 | 6.0 | 14.0 | 0.00 | 0.00 | 0.00 | 43 | 873.4 |
| 20260504230119 | 59 | 327 | 6.0 | 16.0 | 0.00 | 0.00 | 0.00 | 38 | 873.4 |
| 20260504220115 | 59 | 322 | 7.0 | 17.0 | 0.00 | 0.00 | 0.00 | 38 | 873.8 |
| 20260504210125 | 58 | 333 | 6.0 | 15.0 | 0.00 | 0.00 | 0.00 | 37 | 873.8 |
| 20260504200131 | 59 | 338 | 6.0 | 15.0 | 0.00 | 0.00 | 0.00 | 38 | 874.0 |
| 20260504190110 | 58 | 289 | 6.0 | 14.0 | 0.00 | 0.00 | 0.00 | 40 | 874.0 |
| 20260504180150 | 58 | 27 | 4.0 | 12.0 | 0.00 | 0.00 | 0.00 | 45 | 874.0 |
| 20260504170136 | 56 | 284 | 5.0 | 10.0 | 0.00 | 0.00 | 0.00 | 47 | 873.8 |
| 20260504160103 | 56 | 249 | 2.0 | 5.0 | 0.00 | 0.00 | 0.00 | 48 | 874.0 |
| 20260504150117 | 55 | 275 | 1.0 | 6.0 | 0.00 | 0.00 | 0.00 | 48 | 873.9 |
| 20260504140125 | 53 | 318 | 2.0 | 5.0 | 0.00 | 0.00 | 0.00 | 46 | 873.8 |